AirNav   Everest Fuels
 
 948 users online  

94C Gilbert Field Airport
Rio, Wisconsin, USA

GOING TO RIO?


FAA INFORMATION EFFECTIVE 18 JUNE 2020

Location

FAA Identifier: 94C
Lat/Long: 43-26-59.9470N 089-15-00.4170W
43-26.999117N 089-15.006950W
43.4499853,-89.2501158
(estimated)
Elevation: 925 ft. / 281.9 m (surveyed)
Variation: 00W (1985)
From city: 1 mile W of RIO, WI
Time zone: UTC -5 (UTC -6 during Standard Time)
Zip code: 53960

Airport Operations

Airport use: Open to the public
Activation date: 08/1963
Control tower: no
ARTCC: CHICAGO CENTER
FSS: GREEN BAY FLIGHT SERVICE STATION
NOTAMs facility: GRB (NOTAM-D service available)
Attendance: UNATNDD
Wind indicator: yes
Segmented circle: no

Airport Communications

CTAF: 122.9
WX ASOS at MSN (19 nm S): PHONE 608-249-0615

Nearby radio navigation aids

VOR radial/distance  VOR name  Freq  Var
MSNr009/18.7MADISON VORTAC108.6003E
DLLr102/23.2DELLS VORTAC117.0003E
LNRr076/39.6LONE ROCK VOR/DME112.8000E

 
NDB name  Hdg/Dist  Freq  Var  ID
JUNEAU274/23.934401WUNU ..- -. ..-
ROCK RIVER307/28.337101WRYV .-. -.-- ...-

Airport Services

Parking: tiedowns
Airframe service: NONE
Powerplant service: NONE
Bottled oxygen: NONE
Bulk oxygen: NONE

Runway Information

Runway 9/27

Dimensions: 1092 x 65 ft. / 333 x 20 m
Surface: turf, in fair condition
Runway edge markings: 09/27 THLDS MKD WITH ORANGE CONES.
RUNWAY 9  RUNWAY 27
Latitude: 43-27.099000N43-27.099000N
Longitude: 089-15.389833W089-15.107333W
Elevation: 940.0 ft.940.0 ft.
Traffic pattern: leftleft
Runway end identifier lights: nono
Obstructions: 64 ft. trees, 900 ft. from runway, 110 ft. left of centerline, 14:1 slope to clear67 ft. trees, 950 ft. from runway, 150 ft. left of centerline, 14:1 slope to clear

Airport Ownership and Management from official FAA records

Ownership: Privately-owned
Owner: RIO AERO CLUB, INC
5019 HWY 116
RIO, WI 53960
Phone 920-992-5290
Manager: TODD ROAT
PO BOX 184
RIO, WI 53960
Phone (608) 515-6938
EMAIL ADDRESS: DON@ADSMECHANICAL.COM (ALL LOWER CASE)

Airport Operational Statistics

Aircraft based on the field: 10
Single engine airplanes: 8
Ultralights: 2
    
Aircraft operations: avg 111/week *
65% local general aviation
34% transient general aviation
<1% military
* for 12-month period ending 15 June 2017

Additional Remarks

CONFIRM WINTER RY CONDITIONS & SNOW REMOVAL CALL 608-220-9386.
FOR CD CTC CHICAGO ARTCC AT 630-906-8921.

Instrument Procedures

There are no published instrument procedures at 94C.

Some nearby airports with instrument procedures:

C47 - Portage Municipal Airport (12 nm NW)
KMSN - Dane County Regional Airport-Truax Field (19 nm S)
87Y - Blackhawk Airfield (21 nm S)
KDLL - Baraboo-Wisconsin Dells Regional Airport (23 nm W)
C29 - Middleton Municipal Airport - Morey Field (24 nm SW)
 
Loc | Ops | Rwys | IFR | FBO | Links
Com | Nav | Svcs | Stats | Notes
Area around 94C (Gilbert Field Airport)
 
Road maps at: MapQuest Bing Google
 
Aerial photo
WARNING: Photo may not be current or correct
Aerial photo of 94C (Gilbert Field Airport)
Photo taken 24-Apr-2018
looking south.

Do you have a better or more recent aerial photo of Gilbert Field Airport that you would like to share? If so, please send us your photo.

 
Sectional chart

 
Airport distance calculator
Flying to Gilbert Field Airport? Find the distance to fly.

From to 94C

Sunrise and sunset
Times for 05-Jul-2020
 Local
(UTC-5)
 Zulu
(UTC)
Morning civil twilight04:4909:49
Sunrise05:2410:24
Sunset20:3901:39
Evening civil twilight21:1502:15

Current date and time
Zulu (UTC)  05-Jul-2020 21:27:54
Local (UTC-5)  05-Jul-2020 16:27:54
 
METAR
KMSN 
19nm S 
052053Z 21006KT 10SM FEW050 FEW100 BKN250 31/19 A2995 RMK AO2 SLP137 T03110189 58018
KDLL 
23nm W 
052115Z AUTO 22008KT 190V250 10SM SCT047 31/19 A2996 RMK AO2 T03100186
KC29 
24nm SW 
052115Z AUTO 25006KT 10SM CLR 32/20 A2997 RMK AO1 T03190197
KUNU 
24nm E 
052115Z AUTO 26005KT 10SM CLR 31/19 A2998 RMK AO2 LTG DSNT SE T03080193
KRYV 
29nm SE 
052115Z AUTO 26005KT 10SM CLR 31/20 A2996 RMK AO2 T03140199
KC35 
32nm W 
052115Z AUTO 24006KT 10SM SCT047 SCT055 31/21 A2996 RMK AO2 T03130208 PWINO
KY50 
36nm N 
052056Z AUTO 20005KT 10SM BKN048 32/21 A2995 RMK AO2 SLP133 T03170206 56016 $
KFLD 
38nm NE 
052053Z AUTO 23006KT 10SM CLR 33/18 A2996 RMK AO2 SLP140 T03280183 56012 TSNO
TAF
KMSN 
19nm S 
051720Z 0518/0618 22007KT P6SM VCTS SCT050CB SCT250 FM060100 VRB04KT P6SM FEW070 FM061600 25003KT P6SM SCT050
NOTAMs
Click for the latest NOTAMs
NOTAMs are issued by the DoD/FAA and will open in a separate window not controlled by AirNav.

 

 
 

Would you like to see your business listed on this page?

 If your business provides an interesting product or service to pilots, flight crews, aircraft, or users of the Gilbert Field Airport, you should consider listing it here.  To start the listing process, click on the button below
 
Add a business
 

Other Pages about Gilbert Field Airport

Page from the Wisconsin airport directory (PDF)
 
Update a link
 
Copyright © AirNav, LLC. All rights reserved. Privacy Policy  Contact